DW3921 Weather Reports


time (UTC)temp
C
wind
direction
speed
KPH
gust
KPH
rain 1hr
cm
rain 24hr
cm
rain mn
cm
humidity
%
barometer
mb
20260503232005 16 0 0.0 4.8 0.00 0.00 0.00 77 1030.3
20260503231006 15 0 0.0 9.7 0.00 0.00 0.00 83 1030.3
20260503225007 15 0 0.0 4.8 0.00 0.00 0.00 80 1030.7
20260503224006 14 34 3.2 4.8 0.00 0.00 0.00 81 1031.2
20260503223006 13 30 1.6 9.7 0.00 0.00 0.00 81 1031.4
20260503221006 12 28 4.8 11.3 0.00 0.00 0.00 86 1032.5
20260503214006 9 4 3.2 9.7 0.00 0.00 0.00 93 1034.1
20260503213007 8 33 1.6 11.3 0.00 0.00 0.00 95 1034.4
20260503212006 8 0 0.0 9.7 0.00 0.00 0.00 97 1034.6
20260503210006 7 22 3.2 11.3 0.00 0.00 0.00 99 1035.6
20260503204005 6 25 8.0 11.3 0.00 0.00 0.00 99 1037.3
20260503202016 5 18 1.6 11.3 0.00 0.00 0.00 99 1037.9
20260503201006 5 39 1.6 9.7 0.00 0.00 0.00 99 1037.9
20260503200006 5 35 1.6 9.7 0.00 0.00 0.00 99 1038.1
20260503195006 4 36 3.2 9.7 0.00 0.00 0.00 99 1037.8
20260503194005 3 24 1.6 4.8 0.00 0.00 0.00 99 1037.8
20260503193006 3 29 1.6 9.7 0.00 0.00 0.00 99 1037.6
20260503191006 3 35 1.6 9.7 0.00 0.00 0.00 99 1037.6
20260503190007 3 44 1.6 4.8 0.00 0.00 0.00 99 1037.4
20260503185006 3 42 1.6 4.8 0.00 0.00 0.00 99 1037.1
20260503184006 3 31 3.2 9.7 0.00 0.00 0.00 99 1037.0
20260503182006 3 44 3.2 4.8 0.00 0.00 0.00 99 1037.1
20260503180006 4 45 1.6 4.8 0.00 0.00 0.00 99 1036.7
20260503175006 4 38 3.2 9.7 0.00 0.00 0.00 99 1036.4
20260503173007 4 29 3.2 9.7 0.00 0.00 0.00 99 1036.3
20260503172007 4 33 1.6 4.8 0.00 0.00 0.00 99 1036.2
20260503171006 4 32 3.2 9.7 0.00 0.00 0.00 99 1036.4
20260503151006 5 0 0.0 3.2 0.00 0.00 0.00 99 1035.7
20260503131006 6 0 0.0 3.2 0.00 0.00 0.00 99 1033.7
20260503081006 8 0 0.0 0.0 0.00 0.00 0.00 97 1030.3
20260503072006 9 0 0.0 0.0 0.00 0.00 0.00 96 1030.9
20260503071006 9 0 0.0 0.0 0.00 0.00 0.00 96 1030.5
20260503055006 11 0 0.0 0.0 0.00 0.00 0.00 92 1029.6
20260503054008 11 0 0.0 0.0 0.00 0.00 0.00 90 1029.8
20260503053006 12 0 0.0 0.0 0.00 0.00 0.00 89 1029.8
20260503052007 12 0 0.0 0.0 0.00 0.00 0.00 87 1029.7
20260503050006 13 0 0.0 3.2 0.00 0.00 0.00 84 1029.9
20260503044006 15 0 0.0 3.2 0.00 0.00 0.00 79 1029.8
20260503043007 15 0 0.0 4.8 0.00 0.00 0.00 78 1029.7
20260503042006 15 130 1.6 4.8 0.00 0.00 0.00 78 1029.6
20260503041006 15 0 0.0 9.7 0.00 0.00 0.00 78 1029.9
20260503040007 15 113 1.6 11.3 0.00 0.00 0.00 76 1029.8
20260503034006 15 150 1.6 11.3 0.00 0.00 0.00 79 1029.9
20260503033006 15 125 1.6 11.3 0.00 0.00 0.00 77 1029.7
20260503032006 15 157 3.2 11.3 0.00 0.00 0.00 77 1029.9
20260503031008 16 139 4.8 11.3 0.00 0.00 0.00 75 1030.1
20260503030006 16 158 1.6 14.5 0.00 0.00 0.00 77 1030.0
20260503024006 16 197 3.2 11.3 0.00 0.00 0.00 77 1029.9
20260503023006 16 181 1.6 11.3 0.00 0.00 0.00 77 1029.7
20260503022006 16 219 4.8 11.3 0.00 0.00 0.00 77 1029.4
20260503021006 15 179 3.2 11.3 0.00 0.00 0.00 77 1029.3
20260503020006 16 197 3.2 14.5 0.00 0.00 0.00 76 1029.4
20260503015005 16 177 1.6 14.5 0.00 0.00 0.00 75 1029.3
20260503013006 16 179 4.8 11.3 0.00 0.00 0.00 75 1029.1
20260503012006 16 191 4.8 11.3 0.00 0.00 0.00 74 1029.0
20260503011005 16 183 3.2 9.7 0.00 0.00 0.00 74 1029.1
20260503005005 16 182 4.8 9.7 0.00 0.00 0.00 74 1029.0
20260503004006 17 206 3.2 9.7 0.00 0.00 0.00 71 1029.0
20260503003006 16 171 1.6 11.3 0.00 0.00 0.00 72 1028.9
20260503002006 17 225 3.2 9.7 0.00 0.00 0.00 73 1029.0
20260503001006 18 301 3.2 9.7 0.00 0.00 0.00 65 1029.0
20260503000006 17 0 0.0 9.7 0.00 0.00 0.00 69 1029.7
20260502235005 16 9 3.2 11.3 0.00 0.00 0.00 69 1030.0
20260502234006 16 330 3.2 9.7 0.00 0.00 0.00 70 1030.5
20260502233009 16 33 1.6 9.7 0.00 0.00 0.00 70 1030.8